User: anonymous   Login
Location: Asheville, NC
(35.6000°N, 82.5500°W)
Time: 04:53:00
(UTC-04:00)
Language:

AO-92 - Orbit

View from above orbital plane
View from above orbital plane
View from above satellite
View from above satellite

Ground track
Ground track

The orbit data is extracted from the following two-line orbital elements,

1 43137U 18004AC  18140.89186995 +.00000916 +00000-0 +42428-4 0  9990
2 43137 097.5356 203.5154 0009313 186.1641 173.9482 15.22653349019563
Epoch (UTC): 20 May 2018 21:24:17
Eccentricity: 0.0009313
inclination: 97.5356°
perigee height: 491 km
apogee height: 504 km
right ascension of ascending node: 203.5154°
argument of perigee: 186.1641°
revolutions per day: 15.22653349
mean anomaly at epoch: 173.9482°
orbit number at epoch: 1956

The dashed part of the orbit path shows where the satellite is in the earth's shadow,  

DLR